Voltar ao catálogo

CANX-5

AtivoCiênciaSSO
NORAD 40056·PAYLOAD·🇨🇦 Canada

Lançado Jun 30, 2014 de Satish Dhawan Space Centre

Loading…

Próximas Passagens (próximas 24 horas)

TLE

AtualizadoSource: Space-Track

Época: Sep 14, 2026, 02:37 UTC

1 40056U 14034D   26257.10937656  .00000667  00000-0  92420-4 0  9996
2 40056  98.2969 135.6764 0014064  85.5203 274.7615 14.81410809648501

Acompanhe CANX-5 em tempo real com AllMySat

Download on the App Store